Content
SEND FEEDBACK

Daily
Averages
Monthly
Summary
United States of America

WILMINGTON, NORTH CAROLINA


Home > North America > United States > North Carolina
Elevation: 72 feet     Latitude: 34 16N     Longitude: 077 54W

WEATHER
 
SELECT A DAY
Number of Records: 208,938;   Date Range: 1/1/95 - 8/12/14
 
SHARE

PRINT THIS DATA

[ ← Previous Day ]
WEATHER ALMANAC - FEBRUARY 1, 2013
[ Next Day → ]
[ °C ]   °F
Weather ElementAverageHighLow
Temperature43.2 °F54 °F (10:53 am)28 °F (9:53 pm)
Dewpoint18.7 °F28 °F (9:53 am)3 °F (2:53 pm)
Humidity40.4 %69 % (9:53 pm)15 % (2:53 pm)
Barometer30.19 in30.39 in (10:53 pm)30.05 in (6:53 am)
Wind Speed13.1 mph26.5 mph (10:53 am)
Wind Gust40.3 mph (10:53 am)
Weather ElementAverage
Visibility10 mi
Wind DirectionSSW (214.8 °)

Weather ElementTotal
Precipitation---
Heating Degree Days24 (Base 65)
Averaged from 23 records on February 1, 2013
WEATHER CONDITIONS BREAKOUT
WIND DIRECTION BREAKOUT
WEATHER BY HOUR - FEBRUARY 1, 2013
[ °C ]   °F
Local TimeTemperatureDewpointHumidityBarometerVisibilityWind DirectionWind SpeedGust SpeedPrecipitationEventsConditions
1:53 AM43.0 °F25.0 °F49 %30.10 in10.0 miWest (260°)10.4 mphClear
2:53 AM42.1 °F26.1 °F53 %30.08 in10.0 miWSW (240°)11.5 mphClear
3:53 AM43.0 °F25.0 °F49 %30.08 in10.0 miSW (230°)13.8 mphClear
4:53 AM42.1 °F25.0 °F51 %30.07 in10.0 miWSW (240°)12.7 mph20.7 mphClear
5:53 AM43.0 °F25.0 °F49 %30.06 in10.0 miSW (230°)12.7 mphClear
6:53 AM44.1 °F25.0 °F47 %30.05 in10.0 miSW (220°)16.1 mph21.9 mphClear
7:53 AM46.0 °F25.0 °F44 %30.06 in10.0 miSW (230°)16.1 mph25.3 mphClear
8:53 AM51.1 °F26.1 °F38 %30.07 in10.0 miWSW (250°)23.0 mph32.2 mphClear
9:53 AM52.0 °F28.0 °F40 %30.09 in10.0 miWest (270°)24.2 mph35.7 mphClear
10:53 AM54.0 °F28.0 °F37 %30.11 in10.0 miWest (280°)26.5 mph40.3 mphPartly Cloudy
11:53 AM54.0 °F28.0 °F37 %30.12 in10.0 miWNW (290°)20.7 mph29.9 mphMostly Cloudy
12:53 PM52.0 °F23.0 °F32 %30.16 in10.0 miWNW (300°)21.9 mph31.1 mphClear
1:53 PM51.1 °F12.9 °F22 %30.17 in10.0 miNW (310°)21.9 mph29.9 mphClear
2:53 PM50.0 °F3.0 °F15 %30.18 in10.0 miWNW (300°)19.6 mph29.9 mphClear
3:53 PM48.2 °F6.8 °F19 %30.22 in10.0 miWNW (290°)18.4 mphClear
4:53 PM46.0 °F3.0 °F17 %30.25 in10.0 miNW (310°)13.8 mph24.2 mphClear
5:53 PM41.0 °F8.1 °F26 %30.28 in10.0 miNNW (340°)9.2 mphClear
6:53 PM37.9 °F10.0 °F32 %30.31 in10.0 miNorth (10°)4.6 mphClear
7:53 PM36.0 °F10.0 °F34 %30.34 in10.0 miNNW (340°)3.5 mphClear
8:53 PM33.1 °F14.0 °F46 %30.36 in10.0 miCalmClear
9:53 PM28.0 °F19.0 °F69 %30.38 in10.0 miCalmClear
10:53 PM28.0 °F16.0 °F61 %30.39 in10.0 miCalmClear
11:53 PM28.0 °F17.1 °F63 %30.39 in10.0 miCalmClear
Hourly data recorded from KILM, located miles away from Wilmington, North Carolina







STORIES FROM OUR PARTNERS